Notices

What's New in latest Release from April 7th, 2021:

- Updated Glossary, including Speed of Maximum Gust, and Total Hourly Precipitation

- Updated national and regional climate services offices contacts and prices information

- Addition of station inventory lists for 1981-2010, 1971-2000, and 1961-1990 Normals.

If you haven't already, please take our survey and provide feedback about our website: https://eccc.sondage-survey.ca/f/LanguageSelection.aspx?s=442ca660-fcf1-47c0-95a9-59707d6fd709

Hourly Data Report for January 30, 2004

TORONTO CITY
ONTARIO

43°40'00.000" N
79°24'00.000" W
112.50 m
6158355
71508
XTO

Download Data

Hourly Data (January 2004)
Hourly Data Report for January 30, 2004
TIME
LST
Temp Definition
°C
Dew Point Definition
°C
Rel Hum Definition
%
Precip. Amount Definition
mm

Wind Dir Definition
10's deg

Wind Spd Definition
km/h
Visibility Definition
km
Stn Press Definition
kPa
Hmdx Definition


Wind Chill Definition


Weather Definition


00:00 -11.1 -15.2 72   LegendMM LegendMM LegendMM 99.56     LegendNANA
01:00 -11.0 -14.9 73   LegendMM LegendMM LegendMM 99.48     LegendNANA
02:00 -10.8 -14.7 73   LegendMM LegendMM LegendMM 99.40     LegendNANA
03:00 -10.7 -14.5 74   LegendMM LegendMM LegendMM 99.35     LegendNANA
04:00 -10.5 -14.3 74   LegendMM LegendMM LegendMM 99.30     LegendNANA
05:00 -10.1 -14.2 72   LegendMM LegendMM LegendMM 99.23     LegendNANA
06:00 -10.2 -14.3 72   LegendMM LegendMM LegendMM 99.20     LegendNANA
07:00 -10.4 -14.2 74   LegendMM LegendMM LegendMM 99.18     LegendNANA
08:00 -10.3 -14.0 74   LegendMM LegendMM LegendMM 99.20     LegendNANA
09:00 -9.8 -13.1 77   LegendMM LegendMM LegendMM 99.19     LegendNANA
10:00 -9.5 -13.2 74   LegendMM LegendMM LegendMM 99.14     LegendNANA
11:00 -9.1 -13.3 72   LegendMM LegendMM LegendMM 99.09     LegendNANA
12:00 -8.4 -12.8 71   LegendMM LegendMM LegendMM 99.03     LegendNANA
13:00 -8.1 -12.2 72   LegendMM LegendMM LegendMM 98.98     LegendNANA
14:00 -7.9 -12.6 69   LegendMM LegendMM LegendMM 98.93     LegendNANA
15:00 -7.1 -12.2 67   LegendMM LegendMM LegendMM 98.93     LegendNANA
16:00 -7.3 -12.0 69   LegendMM LegendMM LegendMM 98.94     LegendNANA
17:00 -7.1 -11.6 70   LegendMM LegendMM LegendMM 98.93     LegendNANA
18:00 -7.4 -11.7 71   LegendMM LegendMM LegendMM 98.92     LegendNANA
19:00 -7.4 -11.6 72   LegendMM LegendMM LegendMM 98.95     LegendNANA
20:00 -7.3 -11.4 72   LegendMM LegendMM LegendMM 98.95     LegendNANA
21:00 -7.3 -11.1 74   LegendMM LegendMM LegendMM 98.99     LegendNANA
22:00 -9.0 -10.6 88   LegendMM LegendMM LegendMM 99.10     LegendNANA
23:00 -9.8 -11.7 86   LegendMM LegendMM LegendMM 99.20     LegendNANA

Notes on Data Quality.

Legend

  • E = Estimated
  • M = Missing
  • NA = Not Available*
  • [empty] = Indicates an unobserved value
Date modified: